Regional Weather Roundup
Issued by NWS

Home | Current Version | Previous Version | Text Only | Print | Product List | Glossary On
Versions: 1 2 3 4 5 6 7 8 9 10 11 12 13 14 15 16 17 18 19 20 21 22 23 24 25 26 27 28 29 30 31 32 33 34 35 36 37 38 39 40 41 42 43 44 45 46 47 48
000
ASUS43 KDMX 242007
RWRIA

WEATHER ROUNDUP FOR IOWA
NATIONAL WEATHER SERVICE DES MOINES IA
200 PM CST WED DEC 24 2014

NOTE: "FAIR" INDICATES FEW OR NO CLOUDS BELOW 12,000 FEET WITH NO
SIGNIFICANT WEATHER AND/OR OBSTRUCTIONS TO VISIBILITY.

* - THESE STATIONS ARE NOT NWS STATIONS...THUS NOT UNDER NWS
QUALITY CONTROL.  THEY ALSO DO NOT REPORT WEATHER SUCH
AS PRECIPITATION OR FOG.

IAZ001>003-012>014-020>022-031>034-043>046-242100-
   NORTHWEST IOWA

CITY           SKY/WX    TMP DP  RH WIND       PRES   REMARKS
CARROLL *      CLOUDY    32  30  93 NW13      29.73F WCI  22
CHEROKEE *     CLOUDY    30  28  93 NW8       29.73F WCI  23
DENISON *      CLOUDY    30  30 100 NW7G13    29.73F WCI  23
LE MARS *      CLOUDY    28  28 100 NW10      29.75F FOG     WCI  19
ORANGE CITY *  CLOUDY    28  27  93 W9        29.72F FOG     WCI  20
SHELDON *      CLOUDY    28  28 100 W12       29.70F WCI  18
SIOUX CITY     CLOUDY    29  26  89 NW12      29.77F WCI  19
SPENCER        CLOUDY    32  28  85 W12       29.70F WCI  23
STORM LAKE *   MIX PCPN  30  28  93 W12       29.72F WCI  21
$$

IAZ055>058-069>071-079>083-090>094-242100-
   SOUTHWEST IOWA

CITY           SKY/WX    TMP DP  RH WIND       PRES   REMARKS
ATLANTIC *     CLOUDY    32  30  93 NW14      29.76S WCI  22
AUDUBON *      PTSUNNY   32  27  80 NW10      29.75F WCI  24
CLARINDA *     CLOUDY    34  30  86 NW8       29.80F WCI  27
COUNCIL BLFS * CLOUDY    30  30 100 NW12      29.76F FOG     WCI  21
CRESTON *      LGT SNOW  32  32 100 NW12      29.75S WCI  23
HARLAN  *      CLOUDY    30  30 100 NW12      29.79F WCI  21
LAMONI         CLOUDY    34  31  88 NW17      29.74S WCI  23
RED OAK *      CLOUDY    32  30  93 NW13      29.78F WCI  22
SHENANDOAH *   CLOUDY    34  30  86 NW9       29.80F WCI  26
$$

IAZ047>049-059>061-072>074-084-242100-
   CENTRAL IOWA

CITY           SKY/WX    TMP DP  RH WIND       PRES   REMARKS
AMES           CLOUDY    34  30  85 NW14      29.71S FOG     WCI  25
ANKENY *       CLOUDY    34  32  93 NW14G21   29.71S WCI  24
CHARITON *     CLOUDY    34  32  93 MISG      29.71S
DES MOINES     CLOUDY    35  31  85 NW15G25   29.72F WCI  25
GRINNELL*      CLOUDY    36  32  87 NW17      29.66F WCI  25
KNOXVILLE *    CLOUDY    36  32  87 NW15G22   29.68F WCI  26
MARSHALLTOWN   CLOUDY    33  31  92 NW16      29.66F WCI  23
PELLA *        CLOUDY    36  34  93 NW14G25   29.70F WCI  27
PERRY *        CLOUDY    34  32  93 NW10      29.72F FOG     WCI  26
$$

IAZ004>006-015-016-023>025-035-036-242100-
   NORTH CENTRAL IOWA

CITY           SKY/WX    TMP DP  RH WIND       PRES   REMARKS
ALGONA *       LGT RAIN  32  32 100 NW9       29.69F WCI  24
CLARION *      CLOUDY    32  32 100 NW14      29.67F WCI  22
ESTHERVILLE    CLOUDY    32  28  85 NW10      29.68F WCI  24
FORT DODGE *   CLOUDY    34  28  80 NW9       29.71F WCI  26
MASON CITY     CLOUDY    33  31  92 NW15      29.66F WCI  23
FOREST CITY *  CLOUDY    32  32 100 NW10      29.65F WCI  24
IOWA FALLS *   CLOUDY    34  32  93 NW14      29.68F WCI  24
$$

IAZ007>011-017>019-026>030-037>042-050>054-066-242100-
   NORTHEAST IOWA

CITY           SKY/WX    TMP DP  RH WIND       PRES   REMARKS
CEDAR RAPIDS   CLOUDY    36  32  85 NW18      29.60F WCI  26
CHARLES CITY * CLOUDY    34  34 100 NW13G21   29.64F WCI  25
CLINTON *      CLOUDY    36  30  80 NW14      29.58F WCI  27
DECORAH *      CLOUDY    36  32  87 NW13G22   29.58S WCI  27
DUBUQUE        CLOUDY    34  34 100 NW12      29.56S WCI  25
MONTICELLO *   CLOUDY    36  34  93 NW10G17   29.58F WCI  28
OELWEIN *      CLOUDY    36  32  87 NW22G28   29.61S WCI  24
WATERLOO       LGT RAIN  35  33  92 NW18      29.63F WCI  24
$$

IAZ064-065-067-068-078-242100-
   EAST CENTRAL IOWA

CITY           SKY/WX    TMP DP  RH WIND       PRES   REMARKS
DAVENPORT      CLOUDY    35  31  85 NW14      29.58S WCI  26
IOWA CITY      CLOUDY    37  32  82 NW14      29.62F WCI  28
MT. PLEASANT * CLOUDY    36  32  87 W10G16    29.64S WCI  28
MUSCATINE *    CLOUDY    37  32  81 W14       29.61S WCI  29
QUAD CITIES    CLOUDY    36  31  82 NW15G22   29.57F WCI  27
$$

IAZ062-063-075>077-085>089-095>099-242100-
   SOUTHEAST IOWA

CITY           SKY/WX    TMP DP  RH WIND       PRES   REMARKS
BURLINGTON     CLOUDY    36  33  89 NW13G20   29.62S WCI  27
FAIRFIELD *    CLOUDY    37  32  81 NW15G22   29.64F WCI  28
FORT MADISON * CLOUDY    37  36  93 NW14G20   29.64S WCI  29
KEOKUK *       CLOUDY    37  34  87 NW8       29.64S WCI  31
OSKALOOSA *    CLOUDY    36  32  87 NW16      29.67S WCI  26
CENTERVILLE *  PTSUNNY   36  36 100 W17       29.71S WCI  25
OTTUMWA        CLOUDY    35  33  92 NW16      29.66F WCI  25
WASHINGTON *   CLOUDY    37  36  93 NW15G21   29.63S WCI  28
$$

ABBREVIATIONS USED IN REMARKS
   TC - TEMPERATURES IN CELSIUS
  WCI - WIND CHILL INDEX
   HX - HEAT INDEX
  VSB - VISIBILITY
$$




USA.gov is the U.S. government's official web portal to all federal, state and local government web resources and services.